FLOCK 4H-13 (66716 NORAD) Tracking and Keplerian Element Data

This shows tracking and keplerian element data for the satellite.

Feedback or suggestion? Click here.




ElementValue
Catalog66716
NameFLOCK 4H-13
Epoch Orbit325
Epoch Day354.17999176
Epoch Year2025
RAAN65.8438
Inclination97.4438
Eccentricity0.0001519
Argument of Perigee149.0109
Mean Anonmoly211.1215
Mean Motion15.18153955
Decay Rate4.862E-05
L11 66716U 25276BC 25354.17999176 .00004862 00000+0 24135-3 0 9993
L22 66716 97.4438 65.8438 0001519 149.0109 211.1215 15.18153955 3253



Live tracking and technical data element details for FLOCK 4H-13 (NORAD 66716). FLOCK 4H-13 can be tracked NOW for your location showing map with azimuth and elevation plus other details from your city location.







IsCatalogInMostPopularTable: catalog: 66716, numindb: 29
Update: records affected: 1



GetName: 66716 FLOCK 4H-13

Hit Count: updated at: Mon, 20 Apr 2026 10:29:20 GMT